[[{"header":{"parameterUnit":"m.s-1","parameterCategory":2,"la1":30.2991,"la2":30.254,"lo1":-89.0895,"lo2":-89.0444,"dy":0.0017,"dx":0.0017,"nx":28,"ny":28,"refTime":"2025-08-23T09:00:00:Z","depth":"0","parameterNumber":2,"parameterNumberName":"U-component_of_CURRENTS"},"data":[0,0,0,0,0,0,0,0,0,0,0,0,0,0,0,0,0,0,0,0,0,0,0,0,0,0,0,0,0,0,0,0,0,0,0,0,0,0,0,0,0,0,0,0,0,0,0,0,0,0,0,0,0,0,0,0,0,0,-0.1771,-0.1773,0,-0.1893,-0.1894,-0.1896,-0.1835,-0.1831,-0.1828,-0.1825,-0.1843,-0.1847,-0.185,0,0,0,0,0,0,0,0,0,0,0,0,0,-0.1661,-0.1663,-0.1771,-0.1773,-0.1774,-0.1892,-0.1894,-0.1896,-0.1835,-0.1831,-0.1827,-0.1823,-0.1842,-0.1846,-0.185,0,0,0,0,0,0,0,0,0,0,0,0,0,-0.1739,-0.1663,-0.1771,-0.1757,-0.1757,-0.1892,-0.1894,-0.1896,-0.1836,-0.1831,-0.1826,-0.1821,-0.1841,-0.1846,-0.1851,-0.1982,0,0,-0.1867,-0.187,0,0,0,0,0,0,0,0,-0.1735,-0.1743,-0.1758,-0.1758,-0.1758,-0.1842,-0.1862,-0.192,-0.1837,-0.1807,-0.1825,-0.1819,-0.1837,-0.1842,-0.1879,-0.1983,-0.1984,-0.1868,-0.1871,-0.1873,-0.1875,0,0,0,0,0,0,0,-0.1729,-0.1739,-0.182,-0.176,-0.176,-0.1805,-0.1809,-0.1874,-0.1847,-0.1809,-0.1805,-0.1819,-0.1835,-0.1874,-0.1878,-0.1984,-0.1868,-0.1872,-0.1876,-0.1878,-0.2044,-0.2045,0,0,0,0,0,0,-0.1709,-0.1733,-0.1816,-0.1824,-0.1733,-0.181,-0.1815,-0.1821,-0.1848,-0.1848,-0.1823,-0.1815,-0.1867,-0.1872,-0.1878,-0.1934,-0.1873,-0.1878,-0.1881,-0.2043,-0.2045,-0.2046,0,0,0,0,0,0,-0.1706,-0.1715,-0.1811,-0.1781,-0.1795,-0.1816,-0.1825,-0.1826,-0.1847,-0.1859,-0.1856,-0.1837,-0.1863,-0.1871,-0.1921,-0.1937,-0.1881,-0.1885,-0.2042,-0.2044,-0.2045,-0.2109,0,0,0,0,0,0,-0.1702,-0.1713,-0.1717,-0.1779,-0.1796,-0.1891,-0.1829,-0.1832,-0.1863,-0.1854,-0.1873,-0.187,-0.186,-0.1913,-0.1926,-0.1943,-0.189,-0.204,-0.2042,-0.2045,-0.2106,-0.2113,-0.2119,0,0,0,0,0,-0.1698,-0.1723,-0.1717,-0.1727,-0.1799,-0.1894,-0.1909,-0.1907,-0.1868,-0.1902,-0.1897,-0.1868,-0.1934,-0.1921,-0.1935,-0.1953,-0.2039,-0.2042,-0.2045,-0.2102,-0.2112,-0.2119,0,0,0,0,0,0,-0.1679,-0.1721,-0.1715,-0.1749,-0.1815,-0.1882,-0.1912,-0.1921,-0.1953,-0.1931,-0.1919,-0.192,-0.1958,-0.1962,-0.1946,-0.2004,-0.1971,-0.1977,-0.201,-0.2019,-0.2025,-0.201,-0.1894,0,0,0,0,0,-0.1681,-0.17,-0.1764,-0.1793,-0.1823,-0.1873,-0.1909,-0.1923,-0.1959,-0.1967,-0.1977,-0.1979,-0.1994,-0.2007,-0.203,-0.2099,-0.2088,-0.2108,-0.2115,-0.2121,-0.2117,-0.2129,-0.2137,-0.2055,-0.2055,-0.2055,0,0,-0.1682,-0.1707,-0.1717,-0.179,-0.1832,-0.1901,-0.1882,-0.1951,-0.1989,-0.197,-0.2015,-0.2019,-0.2018,-0.2065,-0.2081,-0.2064,-0.2141,-0.2124,-0.2129,-0.2122,-0.2133,-0.214,-0.2147,-0.2057,-0.2057,-0.2056,0,0,-0.1718,-0.1719,-0.176,-0.1819,-0.1895,-0.1929,-0.1949,-0.2027,-0.2034,-0.2109,-0.2071,-0.2093,-0.2143,-0.2138,-0.2139,-0.2212,-0.2177,-0.2203,-0.2234,-0.2248,-0.2254,-0.226,-0.2266,-0.2271,-0.2207,-0.2207,-0.2207,0,-0.1719,-0.1769,-0.1795,-0.1864,-0.1905,-0.1938,-0.2009,-0.2048,-0.2127,-0.2143,-0.2118,-0.2173,-0.2174,-0.2209,-0.2209,-0.2228,-0.222,-0.2204,-0.2256,-0.2262,-0.2266,-0.2271,-0.2276,-0.221,-0.221,-0.2209,-0.2209,0,-0.1795,-0.1841,-0.1876,-0.1948,-0.2007,-0.2076,-0.213,-0.2175,-0.2179,-0.221,-0.2253,-0.2267,-0.2285,-0.2288,-0.2268,-0.23,-0.2278,-0.2264,-0.2234,-0.2278,-0.228,-0.2285,-0.2215,-0.2214,-0.2213,-0.2212,0,0,-0.1774,-0.1901,-0.1909,-0.1951,-0.2052,-0.2103,-0.2171,-0.2242,-0.2261,-0.2319,-0.2346,-0.2375,-0.2366,-0.2365,-0.2351,-0.2357,-0.2384,-0.2317,-0.2316,-0.2321,-0.2402,-0.2234,-0.2222,-0.2372,-0.2373,-0.2374,-0.2394,0,-0.1821,-0.1933,-0.1993,-0.2091,-0.2148,-0.2202,-0.2257,-0.2318,-0.2346,-0.2382,-0.2394,-0.2414,-0.2398,-0.2395,-0.2407,-0.2382,-0.2396,-0.2379,-0.2359,-0.2359,-0.2202,-0.2221,-0.2127,-0.2122,-0.2398,-0.2398,-0.2399,0,-0.1866,-0.1931,-0.2031,-0.2137,-0.2165,-0.2221,-0.2282,-0.2346,-0.2405,-0.2426,-0.2461,-0.2462,-0.2485,-0.2452,-0.2466,-0.245,-0.243,-0.2414,-0.2415,-0.2232,-0.2197,-0.2121,-0.2119,-0.2108,-0.2405,-0.2405,-0.2404,0,-0.1803,-0.1949,-0.2007,-0.205,-0.2181,-0.2216,-0.2271,-0.2345,-0.2368,-0.2438,-0.2442,-0.2501,-0.248,-0.2503,-0.2448,-0.2467,-0.2429,-0.2465,-0.2309,-0.2298,-0.2198,-0.2174,-0.2176,-0.2477,-0.2477,-0.2477,-0.2477,0,-0.1809,-0.186,-0.1975,-0.2009,-0.2054,-0.2171,-0.2208,-0.2274,-0.2343,-0.2351,-0.2437,-0.2421,-0.248,-0.2454,-0.2458,-0.2359,-0.2444,-0.2305,-0.2285,-0.2216,-0.2194,-0.2161,-0.2186,-0.2478,-0.2478,-0.2478,-0.2478,0,-0.1731,-0.182,-0.1881,-0.1999,-0.2025,-0.2046,-0.2133,-0.2158,-0.2246,-0.2254,-0.2269,-0.2337,-0.2317,-0.2342,-0.2345,-0.2315,-0.2229,-0.2224,-0.2121,-0.2085,-0.1938,-0.1969,-0.1917,-0.1862,-0.2108,-0.2104,-0.2101,0,-0.1705,-0.173,-0.1815,-0.1824,-0.1871,-0.1919,-0.1945,-0.2069,-0.2093,-0.2174,-0.2157,-0.2162,-0.2134,-0.2081,-0.2048,-0.2032,-0.2049,-0.1906,-0.1927,-0.1894,-0.1919,-0.1948,-0.1911,-0.1852,-0.1847,-0.1843,-0.1839,0,-0.1635,-0.1649,-0.1687,-0.1697,-0.1719,-0.1749,-0.1802,-0.1809,-0.194,-0.1953,-0.1962,-0.1959,-0.1913,-0.1836,-0.1771,-0.1755,-0.1846,-0.1811,-0.1829,-0.1739,-0.1725,-0.1672,-0.1881,-0.1801,-0.1805,-0.1807,-0.1809,-0.1811,-0.1545,-0.1531,-0.1561,-0.1559,-0.1578,-0.1582,-0.157,-0.1635,-0.1651,-0.1681,-0.1739,-0.1712,-0.1678,-0.1586,-0.1541,-0.1445,-0.1549,-0.145,-0.1504,-0.1547,-0.144,-0.1525,-0.137,-0.1371,-0.1372,-0.1373,-0.1374,0,-0.1435,-0.1432,-0.1426,-0.1429,-0.1399,-0.1452,-0.1471,-0.145,-0.143,-0.1475,-0.1474,-0.1454,-0.1355,-0.1342,-0.1263,-0.1197,-0.1211,-0.1177,-0.1263,-0.125,-0.1374,-0.1303,-0.106,-0.106,-0.106,-0.106,-0.106,-0.106,-0.1377,-0.1333,-0.1331,-0.1253,-0.1248,-0.1186,-0.1173,-0.1156,-0.117,-0.1148,-0.1167,-0.1222,-0.1243,-0.1288,-0.1181,-0.111,-0.1122,-0.105,-0.1095,-0.1256,-0.1289,-0.132,-0.126,-0.1012,-0.1012,-0.0933,-0.0932,-0.0932]},{"header":{"parameterUnit":"m.s-1","parameterCategory":2,"la1":30.2991,"la2":30.254,"lo1":-89.0895,"lo2":-89.0444,"dy":0.0017,"dx":0.0017,"nx":28,"ny":28,"refTime":"2025-08-23T09:00:00:Z","depth":"0","parameterNumber":3,"parameterNumberName":"V-component_of_CURRENTS"},"data":[0,0,0,0,0,0,0,0,0,0,0,0,0,0,0,0,0,0,0,0,0,0,0,0,0,0,0,0,0,0,0,0,0,0,0,0,0,0,0,0,0,0,0,0,0,0,0,0,0,0,0,0,0,0,0,0,0,0,-0.0119,-0.0119,0,-0.0087,-0.0086,-0.0086,-0.005,-0.005,-0.005,-0.0049,0.0048,0.005,0.0052,0,0,0,0,0,0,0,0,0,0,0,0,0,-0.0135,-0.0135,-0.0119,-0.0119,-0.0118,-0.0087,-0.0086,-0.0086,-0.005,-0.005,-0.0049,-0.0049,0.0047,0.005,0.0052,0,0,0,0,0,0,0,0,0,0,0,0,0,-0.0117,-0.0135,-0.0119,-0.0098,-0.0096,-0.0087,-0.0086,-0.0086,-0.0051,-0.005,-0.0049,-0.0049,0.0046,0.0049,0.0053,0.0061,0,0,0.0063,0.0064,0,0,0,0,0,0,0,0,-0.0118,-0.0116,-0.0101,-0.0099,-0.0097,-0.0073,-0.0056,-0.0034,-0.0051,-0.0066,-0.0049,-0.0048,0.0012,0.0018,0.0024,0.0065,0.007,0.0063,0.0065,0.0067,0.0067,0,0,0,0,0,0,0,-0.0119,-0.0117,-0.0105,-0.0101,-0.0098,-0.0085,-0.0082,-0.0052,-0.0029,-0.0065,-0.0063,-0.0061,0.0014,0.002,0.0027,0.0071,0.0063,0.0066,0.0068,0.0069,0.0135,0.0135,0,0,0,0,0,0,-0.0127,-0.0118,-0.0106,-0.0104,-0.0107,-0.0085,-0.0082,-0.008,-0.003,-0.0023,-0.0062,-0.006,0.0015,0.0023,0.003,0.0039,0.0067,0.007,0.0072,0.0135,0.0135,0.0135,0,0,0,0,0,0,-0.0127,-0.0126,-0.0107,-0.0111,-0.0108,-0.0086,-0.0085,-0.008,-0.0072,-0.0029,-0.002,-0.0059,0.0015,0.0026,0.0059,0.0044,0.0071,0.0074,0.0136,0.0135,0.0135,0.006,0,0,0,0,0,0,-0.0128,-0.0127,-0.0128,-0.0112,-0.0108,-0.0107,-0.0085,-0.008,-0.0073,-0.007,-0.0023,-0.0014,0.0017,0.0054,0.0062,0.0049,0.0077,0.0136,0.0135,0.0135,0.0063,0.0057,0.0053,0,0,0,0,0,-0.0129,-0.0141,-0.0129,-0.0127,-0.0112,-0.0108,-0.0105,-0.0086,-0.0074,-0.0075,-0.0039,-0.0015,0.0057,0.0056,0.0066,0.0053,0.0136,0.0136,0.0135,0.0065,0.0059,0.0053,0,0,0,0,0,0,-0.0151,-0.0138,-0.0124,-0.0131,-0.012,-0.0102,-0.0105,-0.009,-0.0065,-0.006,-0.0014,-0.0002,0.002,0.005,0.0048,0.0072,0.0099,0.01,0.0042,0.0036,0.0031,0.0008,0.0079,0,0,0,0,0,-0.0156,-0.0158,-0.0143,-0.0147,-0.0145,-0.0125,-0.012,-0.0108,-0.0085,-0.0074,-0.0039,-0.0003,0.0024,0.0041,0.0072,0.0087,0.011,0.0085,0.008,0.0075,0.0064,0.0071,0.0065,0.0133,0.0133,0.0133,0,0,-0.0164,-0.0159,-0.0159,-0.0151,-0.0142,-0.0153,-0.0121,-0.0121,-0.0126,-0.0066,-0.0057,-0.0018,0.0025,0.004,0.0052,0.0064,0.0074,0.0074,0.007,0.0061,0.007,0.0063,0.0057,0.0133,0.0133,0.0133,0,0,-0.0194,-0.018,-0.0196,-0.0192,-0.0185,-0.0174,-0.0176,-0.0158,-0.0145,-0.0129,-0.009,-0.0062,-0.0016,0.0006,0.0025,0.001,0.0046,0.0022,-0.0025,-0.0018,-0.0024,-0.0029,0.0013,0.0012,0.0018,0.0018,0.0017,0,-0.0205,-0.0222,-0.02,-0.0218,-0.0223,-0.0188,-0.0211,-0.0197,-0.0167,-0.016,-0.0134,-0.0079,-0.0037,-0.0029,-0.0031,-0.0004,0.0017,-0.0007,-0.0027,-0.0031,-0.0035,0.0008,0.0008,0.0014,0.0014,0.0015,0.0015,0,-0.0249,-0.0262,-0.0274,-0.0284,-0.0285,-0.0298,-0.028,-0.0272,-0.0247,-0.0228,-0.0207,-0.0152,-0.012,-0.0103,-0.0069,-0.0078,-0.0047,-0.0036,-0.0017,-0.0047,0.0002,0.0003,0.0009,0.001,0.0011,0.0012,0,0,-0.0275,-0.03,-0.0304,-0.0322,-0.0322,-0.033,-0.0338,-0.0335,-0.0339,-0.0302,-0.0305,-0.0255,-0.022,-0.0198,-0.0153,-0.0144,-0.0138,-0.0107,-0.0105,-0.0076,-0.0101,-0.0033,-0.0024,-0.0138,-0.0139,-0.0139,-0.0049,0,-0.0316,-0.0368,-0.0366,-0.0411,-0.0437,-0.0414,-0.0426,-0.0415,-0.0389,-0.0377,-0.0329,-0.0307,-0.0259,-0.024,-0.0227,-0.0159,-0.0142,-0.0162,-0.0067,-0.0064,-0.0009,-0.0024,-0.0007,0.0077,-0.0047,-0.0047,-0.0047,0,-0.0361,-0.039,-0.0445,-0.0478,-0.0487,-0.0503,-0.0512,-0.0516,-0.0489,-0.0466,-0.0441,-0.0395,-0.0361,-0.032,-0.0241,-0.0257,-0.0189,-0.0139,-0.0134,-0.0048,0.0005,0.0085,0.0085,0.0197,-0.0045,-0.0045,-0.0045,0,-0.0397,-0.0445,-0.0491,-0.0503,-0.0533,-0.0547,-0.0554,-0.0541,-0.0543,-0.0519,-0.0506,-0.0467,-0.0421,-0.0368,-0.0236,-0.0249,-0.0138,-0.0141,-0.0016,-0.0008,0.0036,0.0049,0.0144,-0.01,-0.01,-0.0101,-0.0101,0,-0.0444,-0.0481,-0.051,-0.0536,-0.0585,-0.0586,-0.0618,-0.0614,-0.0602,-0.0604,-0.055,-0.0528,-0.0434,-0.0347,-0.026,-0.0113,-0.015,-0.0025,0.001,0.0016,0.0025,0.015,0.0198,-0.0097,-0.0098,-0.0099,-0.0099,0,-0.048,-0.05,-0.0555,-0.0593,-0.0606,-0.0637,-0.066,-0.0677,-0.0653,-0.0651,-0.0645,-0.0564,-0.045,-0.0328,-0.0203,-0.0114,0.0077,0.0061,0.0085,0.0121,0.0313,0.0355,0.0501,0.0567,0.0182,0.0184,0.0186,0,-0.0505,-0.0536,-0.0594,-0.0627,-0.0646,-0.0684,-0.071,-0.0706,-0.0715,-0.0667,-0.0667,-0.0553,-0.0465,-0.0232,-0.0068,0.0105,0.0188,0.0234,0.02,0.0329,0.0402,0.0436,0.0482,0.0243,0.0245,0.0247,0.0248,0,-0.0547,-0.0562,-0.0605,-0.0674,-0.0712,-0.0756,-0.0784,-0.0801,-0.0783,-0.0758,-0.0698,-0.0624,-0.0382,-0.0175,0.008,0.018,0.032,0.0275,0.0385,0.0439,0.0502,0.0581,0.0206,0.0263,0.0262,0.0261,0.026,0.0259,-0.0567,-0.0604,-0.0655,-0.0718,-0.0767,-0.0816,-0.0846,-0.0857,-0.0859,-0.0815,-0.0731,-0.0593,-0.0273,0.0076,0.0211,0.0497,0.0464,0.0559,0.0598,0.062,0.0684,0.0365,0.0474,0.0474,0.0474,0.0474,0.0473,0,-0.0586,-0.063,-0.0696,-0.0771,-0.0828,-0.0841,-0.0886,-0.0897,-0.0891,-0.0817,-0.0735,-0.0394,-0.0073,0.0232,0.0634,0.0798,0.0823,0.0881,0.0912,0.094,0.0637,0.064,0.0818,0.0817,0.0817,0.0817,0.0817,0.0817,-0.0597,-0.0658,-0.0696,-0.0797,-0.085,-0.0906,-0.0928,-0.0929,-0.0881,-0.0729,-0.0545,-0.0397,0.0051,0.0684,0.1058,0.1097,0.1225,0.123,0.1305,0.1075,0.1046,0.102,0.1034,0.1291,0.1292,0.1584,0.1587,0.1589]}],[{"header":{"parameterUnit":"m.s-1","parameterCategory":2,"la1":30.2991,"la2":30.254,"lo1":-89.0895,"lo2":-89.0444,"dy":0.0017,"dx":0.0017,"nx":28,"ny":28,"refTime":"2025-08-23T09:00:00:Z","depth":"2","parameterNumber":2,"parameterNumberName":"U-component_of_CURRENTS"},"data":[0,0,0,0,0,0,0,0,0,0,0,0,0,0,0,0,0,0,0,0,0,0,0,0,0,0,0,0,0,0,0,0,0,0,0,0,0,0,0,0,0,0,0,0,0,0,0,0,0,0,0,0,0,0,0,0,0,0,-0.1657,-0.1658,0,-0.1716,-0.1716,-0.1717,-0.1673,-0.1672,-0.167,-0.1668,-0.1734,-0.1738,-0.1741,0,0,0,0,0,0,0,0,0,0,0,0,0,-0.1576,-0.1577,-0.1657,-0.1658,-0.1659,-0.1716,-0.1716,-0.1717,-0.1674,-0.1672,-0.1669,-0.1667,-0.1733,-0.1737,-0.1741,0,0,0,0,0,0,0,0,0,0,0,0,0,-0.1619,-0.1577,-0.1657,-0.1645,-0.1645,-0.1716,-0.1716,-0.1717,-0.1674,-0.1672,-0.1669,-0.1666,-0.1732,-0.1737,-0.1742,-0.1826,0,0,-0.1757,-0.1759,0,0,0,0,0,0,0,0,-0.1616,-0.1622,-0.1646,-0.1646,-0.1646,-0.1686,-0.1712,-0.1754,-0.1675,-0.1661,-0.1668,-0.1665,-0.1722,-0.1728,-0.1742,-0.1829,-0.1832,-0.1758,-0.1761,-0.1763,-0.1764,0,0,0,0,0,0,0,-0.1613,-0.1619,-0.1679,-0.1648,-0.1647,-0.1661,-0.1663,-0.172,-0.1705,-0.1662,-0.166,-0.167,-0.1721,-0.1737,-0.1743,-0.1833,-0.1758,-0.1762,-0.1765,-0.1767,-0.1981,-0.1983,0,0,0,0,0,0,-0.1609,-0.1616,-0.1677,-0.1681,-0.1626,-0.1664,-0.1667,-0.1675,-0.1704,-0.1706,-0.1672,-0.1668,-0.173,-0.1737,-0.1745,-0.1803,-0.1763,-0.1768,-0.1771,-0.1978,-0.1981,-0.1984,0,0,0,0,0,0,-0.1607,-0.1614,-0.1675,-0.1651,-0.166,-0.1668,-0.1677,-0.1677,-0.1685,-0.1711,-0.1712,-0.1679,-0.1728,-0.1738,-0.1827,-0.1807,-0.177,-0.1775,-0.1975,-0.1979,-0.1983,-0.1948,0,0,0,0,0,0,-0.1605,-0.1613,-0.1618,-0.1651,-0.1661,-0.1708,-0.168,-0.168,-0.1697,-0.1691,-0.1719,-0.1722,-0.1727,-0.182,-0.1832,-0.1813,-0.1779,-0.1972,-0.1977,-0.1982,-0.1945,-0.195,-0.1954,0,0,0,0,0,-0.1601,-0.1621,-0.1618,-0.1625,-0.1667,-0.1709,-0.1715,-0.1711,-0.17,-0.1708,-0.1756,-0.1721,-0.1857,-0.1828,-0.1841,-0.1823,-0.1969,-0.1976,-0.1981,-0.1944,-0.1949,-0.1953,0,0,0,0,0,0,-0.159,-0.162,-0.1617,-0.1644,-0.1669,-0.1701,-0.1717,-0.1721,-0.1765,-0.1766,-0.1782,-0.1792,-0.1848,-0.1874,-0.1841,-0.1906,-0.1897,-0.1906,-0.1864,-0.187,-0.1873,-0.1845,-0.1783,0,0,0,0,0,-0.1592,-0.1609,-0.1641,-0.1661,-0.1677,-0.17,-0.1718,-0.1721,-0.1765,-0.1778,-0.1806,-0.1847,-0.1889,-0.191,-0.1954,-0.2016,-0.2018,-0.2011,-0.2015,-0.2017,-0.201,-0.2048,-0.2052,-0.2004,-0.2004,-0.2004,0,0,-0.1594,-0.1613,-0.1622,-0.166,-0.168,-0.1707,-0.1703,-0.1737,-0.1749,-0.1786,-0.1828,-0.187,-0.1915,-0.1965,-0.199,-0.1979,-0.203,-0.2025,-0.2026,-0.2017,-0.2054,-0.2058,-0.2061,-0.2008,-0.2007,-0.2006,0,0,-0.1612,-0.1625,-0.1645,-0.1668,-0.1704,-0.1721,-0.1731,-0.1774,-0.1777,-0.1849,-0.1861,-0.1908,-0.1988,-0.1997,-0.2015,-0.2084,-0.2054,-0.2092,-0.208,-0.2117,-0.2119,-0.2122,-0.2099,-0.21,-0.2088,-0.2088,-0.2087,0,-0.1612,-0.1638,-0.1659,-0.1685,-0.1704,-0.1726,-0.1753,-0.1769,-0.1833,-0.1859,-0.1858,-0.1967,-0.1992,-0.2033,-0.2044,-0.2081,-0.2092,-0.2043,-0.2115,-0.2118,-0.2121,-0.2098,-0.21,-0.2087,-0.2087,-0.2087,-0.2087,0,-0.1642,-0.1662,-0.1681,-0.1711,-0.1736,-0.1768,-0.1793,-0.1825,-0.1846,-0.1868,-0.1927,-0.1974,-0.2034,-0.2035,-0.2058,-0.2088,-0.2082,-0.2113,-0.2084,-0.2123,-0.2098,-0.2099,-0.2085,-0.2085,-0.2086,-0.2086,0,0,-0.1641,-0.1692,-0.1695,-0.1711,-0.1753,-0.178,-0.1812,-0.1855,-0.1887,-0.1921,-0.1964,-0.2004,-0.2027,-0.2052,-0.2069,-0.2083,-0.2093,-0.2105,-0.2107,-0.2048,-0.214,-0.2037,-0.2029,-0.2144,-0.2145,-0.2146,-0.21,0,-0.1655,-0.17,-0.1724,-0.1762,-0.1789,-0.182,-0.1848,-0.1888,-0.193,-0.1982,-0.1995,-0.205,-0.203,-0.2065,-0.2074,-0.2114,-0.2104,-0.21,-0.2143,-0.2142,-0.2018,-0.203,-0.1893,-0.1834,-0.2102,-0.2102,-0.2102,0,-0.1668,-0.1699,-0.1739,-0.179,-0.1806,-0.1831,-0.1895,-0.1924,-0.1989,-0.2027,-0.2067,-0.2099,-0.2118,-0.2109,-0.2127,-0.2134,-0.2128,-0.2131,-0.2131,-0.2047,-0.2044,-0.1851,-0.1827,-0.2105,-0.2105,-0.2105,-0.2105,0,-0.1646,-0.1705,-0.1735,-0.1751,-0.1815,-0.1842,-0.1875,-0.1942,-0.1969,-0.2057,-0.2094,-0.2137,-0.2148,-0.2171,-0.2149,-0.2166,-0.2156,-0.219,-0.207,-0.2061,-0.1955,-0.1935,-0.219,-0.219,-0.219,-0.2191,-0.2191,0,-0.1643,-0.1665,-0.1728,-0.1742,-0.1779,-0.1832,-0.1879,-0.1929,-0.1999,-0.2024,-0.2103,-0.2112,-0.217,-0.2167,-0.2165,-0.2095,-0.2165,-0.2051,-0.2048,-0.1938,-0.1917,-0.2177,-0.2176,-0.2189,-0.2189,-0.219,-0.219,0,-0.1597,-0.1644,-0.1675,-0.1744,-0.1764,-0.1784,-0.185,-0.188,-0.1963,-0.1999,-0.2024,-0.2094,-0.2092,-0.2103,-0.2125,-0.2082,-0.2061,-0.2013,-0.184,-0.1817,-0.1935,-0.1934,-0.1898,-0.1894,-0.1891,-0.1888,-0.1886,0,-0.1574,-0.1587,-0.1647,-0.1654,-0.1679,-0.1723,-0.1743,-0.184,-0.1867,-0.1958,-0.1955,-0.1991,-0.1975,-0.1945,-0.1907,-0.1865,-0.194,-0.1699,-0.1705,-0.1906,-0.1909,-0.1912,-0.1915,-0.1543,-0.1538,-0.1534,-0.1531,0,-0.1514,-0.1534,-0.1553,-0.157,-0.1591,-0.1617,-0.1657,-0.1679,-0.1775,-0.1807,-0.1826,-0.1835,-0.1807,-0.1706,-0.1649,-0.1611,-0.1707,-0.1613,-0.1891,-0.1636,-0.1568,-0.1572,-0.1587,-0.1495,-0.1499,-0.1502,-0.1504,-0.1505,-0.1449,-0.144,-0.146,-0.1464,-0.1485,-0.1489,-0.148,-0.1529,-0.155,-0.1577,-0.1642,-0.1609,-0.161,-0.1462,-0.138,-0.1325,-0.1452,-0.1405,-0.142,-0.1439,-0.1403,-0.1334,-0.1206,-0.1208,-0.121,-0.1211,-0.1212,0,-0.1354,-0.1352,-0.135,-0.1353,-0.1327,-0.1378,-0.1394,-0.137,-0.1348,-0.1394,-0.1394,-0.1269,-0.1194,-0.1201,-0.1062,-0.1028,-0.1044,-0.0983,-0.1018,-0.1053,-0.1085,-0.1034,-0.0738,-0.0737,-0.0735,-0.0734,0,0,-0.1303,-0.1263,-0.126,-0.119,-0.1188,-0.113,-0.1116,-0.1098,-0.1107,-0.1073,-0.1063,-0.1154,-0.118,-0.0973,-0.0911,-0.0805,-0.0924,-0.076,-0.1142,-0.1219,-0.1249,-0.1327,-0.1287,0,0,0,0,0]},{"header":{"parameterUnit":"m.s-1","parameterCategory":2,"la1":30.2991,"la2":30.254,"lo1":-89.0895,"lo2":-89.0444,"dy":0.0017,"dx":0.0017,"nx":28,"ny":28,"refTime":"2025-08-23T09:00:00:Z","depth":"2","parameterNumber":3,"parameterNumberName":"V-component_of_CURRENTS"},"data":[0,0,0,0,0,0,0,0,0,0,0,0,0,0,0,0,0,0,0,0,0,0,0,0,0,0,0,0,0,0,0,0,0,0,0,0,0,0,0,0,0,0,0,0,0,0,0,0,0,0,0,0,0,0,0,0,0,0,-0.0057,-0.0057,0,-0.0035,-0.0034,-0.0034,0.0001,0.0001,0.0002,0.0002,0.0086,0.0087,0.0089,0,0,0,0,0,0,0,0,0,0,0,0,0,-0.0069,-0.0069,-0.0057,-0.0057,-0.0057,-0.0035,-0.0034,-0.0034,0.0001,0.0001,0.0002,0.0003,0.0085,0.0087,0.0089,0,0,0,0,0,0,0,0,0,0,0,0,0,-0.0057,-0.0069,-0.0058,-0.0037,-0.0035,-0.0035,-0.0034,-0.0034,0.0,0.0001,0.0002,0.0003,0.0084,0.0087,0.0089,0.0087,0,0,0.0097,0.0098,0,0,0,0,0,0,0,0,-0.0057,-0.0056,-0.0041,-0.0039,-0.0036,-0.0019,-0.0008,0.001,0.0,-0.0013,0.0002,0.0003,0.0055,0.006,0.0062,0.0091,0.0095,0.0097,0.0099,0.01,0.01,0,0,0,0,0,0,0,-0.0058,-0.0057,-0.0048,-0.004,-0.0038,-0.0029,-0.0026,-0.0005,0.0017,-0.0012,-0.0009,-0.0007,0.0057,0.006,0.0065,0.0096,0.0097,0.0099,0.0101,0.0102,0.0187,0.0188,0,0,0,0,0,0,-0.0063,-0.0058,-0.0049,-0.0047,-0.0045,-0.0029,-0.0026,-0.0025,0.0016,0.0023,-0.0008,-0.0006,0.0055,0.0062,0.0068,0.0096,0.01,0.0102,0.0104,0.0186,0.0187,0.0188,0,0,0,0,0,0,-0.0063,-0.0063,-0.005,-0.0052,-0.005,-0.003,-0.0029,-0.0025,-0.0019,0.0018,0.0026,-0.0005,0.0056,0.0064,0.0101,0.0098,0.0103,0.0106,0.0185,0.0187,0.0188,0.0134,0,0,0,0,0,0,-0.0064,-0.0063,-0.0065,-0.0053,-0.005,-0.0055,-0.003,-0.0026,-0.0019,-0.0016,0.0023,0.0031,0.0057,0.0097,0.0104,0.0102,0.0107,0.0184,0.0186,0.0187,0.0135,0.0133,0.0132,0,0,0,0,0,-0.0064,-0.0077,-0.0065,-0.0064,-0.0053,-0.0056,-0.0054,-0.0036,-0.002,-0.0025,0.0017,0.003,0.0111,0.01,0.0107,0.0106,0.0184,0.0186,0.0187,0.0136,0.0134,0.0132,0,0,0,0,0,0,-0.0085,-0.0074,-0.0061,-0.0069,-0.0063,-0.005,-0.0054,-0.0039,-0.0013,-0.0005,0.0036,0.0047,0.0079,0.0104,0.0091,0.0139,0.0151,0.0154,0.0109,0.0108,0.0106,0.0085,0.011,0,0,0,0,0,-0.009,-0.0094,-0.0082,-0.0087,-0.0087,-0.007,-0.0067,-0.0056,-0.0032,-0.0021,0.0009,0.0051,0.0089,0.0108,0.014,0.0161,0.018,0.0169,0.0168,0.0166,0.0157,0.0181,0.0179,0.0194,0.0194,0.0194,0,0,-0.0099,-0.0094,-0.0095,-0.0092,-0.0085,-0.0091,-0.0066,-0.0069,-0.0064,-0.0015,0.0003,0.0043,0.0095,0.0123,0.0139,0.0144,0.0176,0.0168,0.0166,0.0158,0.0182,0.0181,0.0179,0.0195,0.0195,0.0194,0,0,-0.0126,-0.0115,-0.013,-0.0127,-0.0122,-0.011,-0.0111,-0.0098,-0.0082,-0.0062,-0.0016,0.0026,0.0069,0.011,0.0138,0.0149,0.0166,0.0159,0.0131,0.0154,0.0153,0.0151,0.018,0.0182,0.0158,0.0158,0.0158,0,-0.0137,-0.0151,-0.0135,-0.0149,-0.015,-0.012,-0.0136,-0.0118,-0.0091,-0.0079,-0.0061,0.002,0.0064,0.0111,0.0119,0.0143,0.0156,0.0129,0.0149,0.0148,0.0148,0.0178,0.018,0.0155,0.0155,0.0156,0.0156,0,-0.0175,-0.0184,-0.0194,-0.0196,-0.0196,-0.0205,-0.018,-0.0171,-0.0145,-0.0124,-0.0081,-0.0017,0.0029,0.0056,0.0091,0.0116,0.0127,0.0141,0.0144,0.0142,0.0175,0.0178,0.0152,0.0153,0.0153,0.0154,0,0,-0.0205,-0.0219,-0.0222,-0.0233,-0.0221,-0.0229,-0.0217,-0.0203,-0.0199,-0.0156,-0.0143,-0.0063,-0.0033,0.0001,0.0054,0.0082,0.0101,0.0102,0.0104,0.0113,0.0148,0.0174,0.018,0.0107,0.0107,0.0107,0.0174,0,-0.0239,-0.028,-0.0271,-0.03,-0.0318,-0.0287,-0.0282,-0.0261,-0.0232,-0.0211,-0.0137,-0.0103,-0.0051,-0.003,0.0007,0.008,0.0106,0.0081,0.0163,0.0166,0.0175,0.0184,0.0177,0.0237,0.0177,0.0178,0.0178,0,-0.028,-0.0302,-0.0341,-0.0357,-0.0362,-0.0367,-0.0359,-0.035,-0.0304,-0.028,-0.0233,-0.0182,-0.0113,-0.0079,0.003,0.0006,0.0066,0.0121,0.0125,0.0166,0.0197,0.0231,0.0246,0.0184,0.0184,0.0183,0.0183,0,-0.032,-0.035,-0.0384,-0.039,-0.0399,-0.0405,-0.0403,-0.0373,-0.037,-0.0325,-0.0317,-0.0234,-0.0189,-0.0108,0.0014,0.0012,0.0125,0.0141,0.0222,0.0225,0.0246,0.025,0.0198,0.0198,0.0198,0.0198,0.0198,0,-0.0362,-0.039,-0.0407,-0.0428,-0.0467,-0.0451,-0.0474,-0.0458,-0.0432,-0.0431,-0.0357,-0.0331,-0.02,-0.0114,-0.0012,0.0121,0.0108,0.0216,0.0242,0.023,0.0232,0.0206,0.0205,0.0201,0.02,0.0199,0.0199,0,-0.0401,-0.0412,-0.0457,-0.0479,-0.0489,-0.0515,-0.0529,-0.054,-0.051,-0.0503,-0.0493,-0.0402,-0.0286,-0.0148,-0.0001,0.0092,0.0214,0.026,0.0243,0.0265,0.0304,0.03,0.0354,0.0355,0.0357,0.0358,0.0358,0,-0.0426,-0.0452,-0.05,-0.0531,-0.0543,-0.0575,-0.0596,-0.0581,-0.0587,-0.0541,-0.0538,-0.0434,-0.0343,-0.0112,0.0063,0.0246,0.0247,0.034,0.0341,0.0299,0.0319,0.0314,0.0309,0.0354,0.0355,0.0356,0.0356,0,-0.0467,-0.0481,-0.0517,-0.0584,-0.0619,-0.0659,-0.0681,-0.0701,-0.0673,-0.065,-0.0594,-0.0518,-0.0295,-0.0087,0.0147,0.0254,0.0311,0.0358,0.032,0.0313,0.0305,0.0322,0.0316,0.0362,0.0361,0.0361,0.036,0.036,-0.0489,-0.0526,-0.0572,-0.0632,-0.0679,-0.0726,-0.0754,-0.076,-0.076,-0.0709,-0.0632,-0.0484,-0.0293,0.0051,0.0215,0.0373,0.0369,0.042,0.0416,0.0412,0.0397,0.0391,0.0462,0.0462,0.0462,0.0462,0.0462,0,-0.051,-0.0553,-0.0616,-0.0687,-0.0742,-0.0755,-0.0796,-0.0802,-0.0793,-0.0704,-0.0618,-0.0394,-0.0149,0.0055,0.0312,0.0454,0.0442,0.0477,0.0437,0.0432,0.0427,0.041,0.048,0.048,0.0481,0.0481,0,0,-0.0524,-0.0582,-0.0618,-0.0716,-0.0768,-0.0821,-0.0841,-0.0835,-0.0772,-0.0689,-0.056,-0.0389,-0.0129,0.005,0.0231,0.0369,0.0361,0.038,0.0354,0.0281,0.0275,0.0387,0.0355,0,0,0,0,0]}],[{"header":{"parameterUnit":"m.s-1","parameterCategory":2,"la1":30.2991,"la2":30.254,"lo1":-89.0895,"lo2":-89.0444,"dy":0.0017,"dx":0.0017,"nx":28,"ny":28,"refTime":"2025-08-23T09:00:00:Z","depth":"4","parameterNumber":2,"parameterNumberName":"U-component_of_CURRENTS"},"data":[0,0,0,0,0,0,0,0,0,0,0,0,0,0,0,0,0,0,0,0,0,0,0,0,0,0,0,0,0,0,0,0,0,0,0,0,0,0,0,0,0,0,0,0,0,0,0,0,0,0,0,0,0,0,0,0,0,0,-0.1202,-0.1203,0,-0.1226,-0.1226,-0.1226,-0.1237,-0.1237,-0.1238,-0.1238,-0.1235,-0.1235,-0.1234,0,0,0,0,0,0,0,0,0,0,0,0,0,-0.1134,-0.1135,-0.1202,-0.1203,-0.1204,-0.1226,-0.1226,-0.1226,-0.1237,-0.1237,-0.1238,-0.1238,-0.1235,-0.1235,-0.1234,0,0,0,0,0,0,0,0,0,0,0,0,0,-0.1158,-0.1135,-0.1202,-0.1214,-0.1216,-0.1226,-0.1226,-0.1226,-0.1237,-0.1237,-0.1238,-0.1238,-0.1235,-0.1235,-0.1234,-0.1221,0,0,-0.1233,-0.1232,0,0,0,0,0,0,0,0,-0.1156,-0.116,-0.1212,-0.1214,-0.1216,-0.1232,-0.1201,-0.1224,-0.1237,-0.1225,-0.1238,-0.1238,-0.1234,-0.1233,-0.1232,-0.1221,-0.1221,-0.1232,-0.1232,-0.1232,-0.1232,0,0,0,0,0,0,0,-0.1155,-0.1159,-0.1208,-0.1213,-0.1215,-0.1208,-0.1212,-0.1205,-0.1223,-0.1226,-0.1228,-0.1236,-0.1234,-0.1232,-0.1232,-0.1221,-0.1232,-0.1232,-0.1232,-0.1231,-0.1236,-0.1236,0,0,0,0,0,0,-0.1161,-0.1157,-0.1207,-0.1209,-0.1191,-0.1209,-0.1213,-0.1223,-0.1224,-0.1226,-0.1236,-0.1237,-0.1233,-0.1233,-0.1232,-0.1253,-0.1232,-0.1231,-0.1231,-0.1235,-0.1236,-0.1236,0,0,0,0,0,0,-0.1159,-0.1165,-0.1206,-0.1186,-0.1192,-0.121,-0.1221,-0.1224,-0.1243,-0.1232,-0.1233,-0.1256,-0.1233,-0.1233,-0.1229,-0.1252,-0.1231,-0.1231,-0.1235,-0.1236,-0.1236,-0.1273,0,0,0,0,0,0,-0.1157,-0.1164,-0.118,-0.1187,-0.1193,-0.1214,-0.1221,-0.1224,-0.1248,-0.125,-0.1249,-0.1248,-0.1234,-0.123,-0.1229,-0.1251,-0.123,-0.1234,-0.1235,-0.1236,-0.1271,-0.1274,-0.1277,0,0,0,0,0,-0.1154,-0.1174,-0.1181,-0.1187,-0.1212,-0.1214,-0.1216,-0.1228,-0.1249,-0.1249,-0.1249,-0.1249,-0.1235,-0.1229,-0.1228,-0.125,-0.1234,-0.1235,-0.1236,-0.1269,-0.1274,-0.1277,0,0,0,0,0,0,-0.1154,-0.1177,-0.1185,-0.1211,-0.1214,-0.1217,-0.1233,-0.1242,-0.1244,-0.1255,-0.1246,-0.1244,-0.1251,-0.1243,-0.1237,-0.1254,-0.1238,-0.1239,-0.1264,-0.1268,-0.1272,-0.1278,-0.123,0,0,0,0,0,-0.1161,-0.1183,-0.1192,-0.1213,-0.122,-0.1231,-0.124,-0.1245,-0.1248,-0.1252,-0.1251,-0.1252,-0.125,-0.1254,-0.1244,-0.1251,-0.1253,-0.1267,-0.127,-0.1273,-0.1277,-0.1297,-0.1302,-0.124,-0.124,-0.124,0,0,-0.117,-0.1185,-0.1199,-0.1215,-0.1225,-0.1228,-0.1237,-0.1254,-0.1262,-0.125,-0.1265,-0.1261,-0.1253,-0.1257,-0.1261,-0.1257,-0.1292,-0.1275,-0.1277,-0.1279,-0.1298,-0.1305,-0.131,-0.1241,-0.124,-0.124,0,0,-0.1179,-0.121,-0.1221,-0.1222,-0.1238,-0.1244,-0.1254,-0.1263,-0.1276,-0.1278,-0.1279,-0.1287,-0.1282,-0.1282,-0.1283,-0.13,-0.1305,-0.1306,-0.1334,-0.1353,-0.1359,-0.1364,-0.1376,-0.1381,-0.1313,-0.1313,-0.1313,0,-0.1189,-0.1203,-0.1223,-0.1223,-0.1235,-0.1254,-0.1259,-0.1269,-0.1274,-0.1292,-0.1286,-0.1303,-0.1294,-0.1315,-0.1317,-0.131,-0.1319,-0.132,-0.1359,-0.1363,-0.1368,-0.1379,-0.1385,-0.1315,-0.1315,-0.1315,-0.1314,0,-0.1191,-0.1205,-0.1214,-0.1225,-0.1237,-0.1247,-0.1263,-0.1281,-0.1305,-0.1315,-0.1343,-0.1331,-0.1345,-0.1348,-0.1335,-0.137,-0.1367,-0.1358,-0.135,-0.1377,-0.1386,-0.1392,-0.1318,-0.1317,-0.1317,-0.1316,0,0,-0.12,-0.1214,-0.1218,-0.1227,-0.1242,-0.1256,-0.1279,-0.1307,-0.1342,-0.1347,-0.1388,-0.1384,-0.1397,-0.1397,-0.1396,-0.1411,-0.1445,-0.1402,-0.1402,-0.1417,-0.149,-0.1388,-0.1384,-0.1449,-0.145,-0.1451,-0.1485,0,-0.1195,-0.1206,-0.1214,-0.1232,-0.1241,-0.1267,-0.129,-0.1321,-0.1351,-0.1391,-0.1408,-0.1434,-0.1412,-0.143,-0.1442,-0.1445,-0.1461,-0.1437,-0.1459,-0.146,-0.1369,-0.1387,-0.1455,-0.1489,-0.149,-0.1491,-0.1492,0,-0.1184,-0.1199,-0.1217,-0.125,-0.1261,-0.1279,-0.1345,-0.1364,-0.1417,-0.1441,-0.1474,-0.1487,-0.1515,-0.1492,-0.1516,-0.1505,-0.1501,-0.1499,-0.15,-0.1395,-0.1367,-0.1456,-0.1501,-0.1501,-0.15,-0.1499,-0.1499,0,-0.1181,-0.12,-0.1228,-0.1234,-0.1271,-0.1304,-0.1336,-0.1389,-0.1424,-0.1482,-0.1517,-0.1544,-0.1574,-0.1572,-0.1562,-0.1548,-0.1588,-0.1565,-0.1472,-0.1465,-0.1532,-0.1527,-0.1585,-0.1585,-0.1585,-0.1585,-0.1585,0,-0.116,-0.118,-0.1237,-0.1246,-0.1295,-0.1323,-0.1384,-0.1415,-0.1476,-0.1509,-0.155,-0.1574,-0.1598,-0.1618,-0.1593,-0.1546,-0.1613,-0.1477,-0.1466,-0.1546,-0.1542,-0.1536,-0.153,-0.1586,-0.1586,-0.1586,-0.1586,0,-0.1127,-0.1164,-0.1197,-0.1261,-0.1289,-0.1327,-0.1405,-0.1433,-0.1504,-0.155,-0.157,-0.1623,-0.1626,-0.1642,-0.1645,-0.1582,-0.1549,-0.152,-0.1615,-0.1609,-0.1405,-0.1401,-0.1406,-0.1403,-0.14,-0.1397,-0.1395,0,-0.11,-0.1116,-0.1205,-0.1229,-0.1258,-0.1325,-0.1354,-0.1435,-0.1455,-0.1552,-0.1553,-0.1611,-0.1622,-0.1554,-0.1571,-0.1528,-0.1502,-0.1485,-0.1425,-0.1397,-0.1387,-0.1387,-0.1386,-0.1391,-0.139,-0.1389,-0.1389,0,-0.1042,-0.1093,-0.1122,-0.1177,-0.1223,-0.1267,-0.1317,-0.1336,-0.1409,-0.1503,-0.149,-0.1485,-0.1498,-0.1475,-0.1468,-0.1429,-0.1489,-0.1455,-0.1459,-0.1403,-0.1379,-0.1372,-0.1375,-0.1379,-0.138,-0.1381,-0.1382,0,-0.1001,-0.1012,-0.1061,-0.1096,-0.1151,-0.1162,-0.1217,-0.123,-0.1274,-0.1374,-0.1367,-0.1416,-0.148,-0.1425,-0.1409,-0.1372,-0.1331,-0.1271,-0.1285,-0.1296,-0.124,-0.1193,-0.1126,0,0,0,0,0,-0.0942,-0.0938,-0.0965,-0.1,-0.1047,-0.1077,-0.1153,-0.1205,-0.13,-0.1251,-0.1304,-0.1296,-0.1272,-0.1302,-0.1234,-0.1347,-0.1336,-0.1262,-0.1275,-0.1324,-0.1336,-0.1277,0,0,0,0,0,0,-0.0901,-0.0923,-0.0928,-0.0899,-0.0899,-0.0941,-0.0984,-0.1056,-0.1038,-0.1139,-0.1132,-0.1208,-0.1204,-0.1285,-0.1204,-0.1211,-0.1188,-0.13,-0.1296,-0.1318,-0.1328,-0.1337,-0.1281,0,0,0,0,0]},{"header":{"parameterUnit":"m.s-1","parameterCategory":2,"la1":30.2991,"la2":30.254,"lo1":-89.0895,"lo2":-89.0444,"dy":0.0017,"dx":0.0017,"nx":28,"ny":28,"refTime":"2025-08-23T09:00:00:Z","depth":"4","parameterNumber":3,"parameterNumberName":"V-component_of_CURRENTS"},"data":[0,0,0,0,0,0,0,0,0,0,0,0,0,0,0,0,0,0,0,0,0,0,0,0,0,0,0,0,0,0,0,0,0,0,0,0,0,0,0,0,0,0,0,0,0,0,0,0,0,0,0,0,0,0,0,0,0,0,-0.0041,-0.0041,0,-0.0035,-0.0035,-0.0035,-0.0006,-0.0006,-0.0005,-0.0004,0.0017,0.0017,0.0017,0,0,0,0,0,0,0,0,0,0,0,0,0,-0.0043,-0.0043,-0.0041,-0.0041,-0.0041,-0.0035,-0.0035,-0.0035,-0.0006,-0.0006,-0.0005,-0.0004,0.0017,0.0017,0.0017,0,0,0,0,0,0,0,0,0,0,0,0,0,-0.004,-0.0043,-0.0041,-0.0026,-0.0024,-0.0035,-0.0035,-0.0035,-0.0007,-0.0006,-0.0004,-0.0004,0.0017,0.0017,0.0017,-0.0005,0,0,0.0016,0.0016,0,0,0,0,0,0,0,0,-0.004,-0.004,-0.0028,-0.0027,-0.0025,-0.002,-0.0028,-0.0024,-0.0007,-0.0013,-0.0004,-0.0003,0.0005,0.0006,0.0004,-0.0004,-0.0003,0.0016,0.0016,0.0016,0.0016,0,0,0,0,0,0,0,-0.0041,-0.004,-0.0039,-0.0028,-0.0026,-0.0024,-0.0023,-0.0027,-0.001,-0.0013,-0.0011,-0.001,0.0006,0.0004,0.0005,-0.0003,0.0016,0.0016,0.0016,0.0016,0.0001,0.0001,0,0,0,0,0,0,-0.0041,-0.0041,-0.0039,-0.0038,-0.003,-0.0025,-0.0023,-0.0023,-0.001,-0.0007,-0.0011,-0.0009,0.0004,0.0005,0.0006,0.0005,0.0016,0.0016,0.0016,0.0001,0.0001,0.0,0,0,0,0,0,0,-0.0042,-0.0041,-0.0039,-0.0039,-0.0039,-0.0026,-0.0026,-0.0023,-0.002,-0.0009,-0.0005,-0.0009,0.0005,0.0006,0.0002,0.0006,0.0016,0.0016,0.0002,0.0001,0.0001,-0.0011,0,0,0,0,0,0,-0.0042,-0.0042,-0.0043,-0.0039,-0.0039,-0.005,-0.0027,-0.0024,-0.0021,-0.0018,-0.0007,-0.0004,0.0006,0.0002,0.0002,0.0006,0.0016,0.0002,0.0001,0.0001,-0.0011,-0.0012,-0.0014,0,0,0,0,0,-0.0042,-0.0052,-0.0044,-0.0043,-0.0041,-0.005,-0.0051,-0.0038,-0.0022,-0.0029,-0.0018,-0.0004,-0.0002,0.0001,0.0001,0.0005,0.0002,0.0001,0.0001,-0.001,-0.0012,-0.0014,0,0,0,0,0,0,-0.0056,-0.005,-0.0041,-0.0048,-0.005,-0.0046,-0.0052,-0.0041,-0.0038,-0.0032,-0.0016,-0.0013,-0.0014,-0.0008,-0.0006,-0.0001,0.0005,0.0004,-0.0003,-0.0005,-0.0006,-0.0002,0.0015,0,0,0,0,0,-0.006,-0.0064,-0.006,-0.0066,-0.0068,-0.0059,-0.006,-0.0053,-0.0049,-0.0046,-0.0037,-0.0027,-0.0019,-0.0015,-0.0013,-0.0018,0.0006,-0.0013,-0.0014,-0.0016,-0.0013,0.0029,0.0033,-0.0002,-0.0002,-0.0002,0,0,-0.0067,-0.0065,-0.0066,-0.0069,-0.0068,-0.0076,-0.0058,-0.0064,-0.0064,-0.0046,-0.0046,-0.0037,-0.0023,-0.0023,-0.0022,-0.0016,0.0004,-0.0017,-0.0018,-0.0014,0.0029,0.0033,0.0036,-0.0002,-0.0002,-0.0002,0,0,-0.009,-0.0082,-0.0095,-0.0097,-0.0098,-0.0093,-0.0094,-0.0092,-0.0083,-0.0089,-0.0067,-0.0054,-0.0056,-0.0036,-0.0026,-0.0038,-0.0008,-0.0038,-0.0039,0.0002,0.0006,0.0009,0.0035,0.0041,-0.0035,-0.0035,-0.0035,0,-0.0098,-0.011,-0.0102,-0.0116,-0.0118,-0.01,-0.0115,-0.0107,-0.0104,-0.0097,-0.0092,-0.0068,-0.0057,-0.0036,-0.0037,-0.0039,-0.0017,-0.0032,0.0002,0.0006,0.001,0.0035,0.0042,-0.0036,-0.0036,-0.0036,-0.0036,0,-0.013,-0.0138,-0.0148,-0.0153,-0.0157,-0.0168,-0.0155,-0.0154,-0.0139,-0.0125,-0.0108,-0.0088,-0.007,-0.0062,-0.0054,-0.0021,-0.0016,-0.0006,0.001,0.0013,0.0039,0.0046,-0.0037,-0.0036,-0.0036,-0.0036,0,0,-0.0154,-0.0167,-0.0171,-0.018,-0.0176,-0.0186,-0.0182,-0.0175,-0.0169,-0.0149,-0.0135,-0.0108,-0.0086,-0.0074,-0.0053,-0.0015,0.0029,-0.0001,0.0002,0.003,0.0112,0.0094,0.0101,0.0048,0.0049,0.005,0.0116,0,-0.0181,-0.0215,-0.021,-0.0236,-0.0251,-0.0231,-0.0232,-0.0218,-0.0199,-0.0182,-0.0134,-0.012,-0.0093,-0.0085,-0.0039,0.0008,0.0048,0.0009,0.01,0.0102,0.0092,0.0109,0.0055,0.0122,0.0124,0.0125,0.0126,0,-0.0213,-0.0231,-0.0265,-0.0278,-0.0283,-0.0292,-0.0286,-0.0284,-0.0245,-0.0229,-0.0186,-0.0152,-0.0094,-0.0075,0.003,0.0004,0.0056,0.0098,0.0102,0.0097,0.0099,0.012,0.014,0.0138,0.0137,0.0137,0.0136,0,-0.0241,-0.0268,-0.0296,-0.0302,-0.0313,-0.0321,-0.0322,-0.0299,-0.03,-0.0254,-0.0248,-0.0167,-0.0139,-0.0047,0.0037,0.0038,0.0149,0.0162,0.0198,0.0197,0.0199,0.0195,0.0241,0.0241,0.024,0.024,0.024,0,-0.0269,-0.0293,-0.0314,-0.0331,-0.0366,-0.0357,-0.0378,-0.0365,-0.0345,-0.0344,-0.0275,-0.0255,-0.0131,-0.0056,0.0034,0.0135,0.0152,0.0203,0.0219,0.0189,0.0183,0.0204,0.0199,0.0243,0.0242,0.0242,0.0241,0,-0.0295,-0.0308,-0.0347,-0.0371,-0.0383,-0.0408,-0.0429,-0.0439,-0.0414,-0.0409,-0.0397,-0.0317,-0.0214,-0.0094,0.0047,0.0114,0.022,0.0249,0.0197,0.0207,0.0243,0.0236,0.0308,0.0308,0.0308,0.0309,0.0309,0,-0.031,-0.0333,-0.0383,-0.0414,-0.0429,-0.0462,-0.0485,-0.0476,-0.0481,-0.0446,-0.0443,-0.0355,-0.0286,-0.0097,0.0028,0.0203,0.0222,0.0271,0.0275,0.0245,0.0253,0.0246,0.0239,0.0309,0.0309,0.0309,0.0309,0,-0.0336,-0.0356,-0.0388,-0.0454,-0.0493,-0.0533,-0.0558,-0.057,-0.055,-0.0534,-0.0471,-0.0368,-0.0258,-0.0101,0.0024,0.015,0.0242,0.0272,0.0273,0.0278,0.0246,0.0252,0.0246,0.0309,0.0309,0.0309,0.0309,0,-0.0351,-0.0382,-0.0429,-0.0484,-0.054,-0.0581,-0.0594,-0.0588,-0.0587,-0.0536,-0.0517,-0.0386,-0.0306,-0.013,-0.0011,0.0108,0.0145,0.0182,0.0188,0.019,0.0134,0.0076,0.0105,0,0,0,0,0,-0.0359,-0.0396,-0.0455,-0.0517,-0.0573,-0.0601,-0.0632,-0.0633,-0.0617,-0.0576,-0.0541,-0.043,-0.0243,-0.0164,-0.0045,-0.0014,0.0155,0.0127,0.0199,0.031,0.031,0.0263,0,0,0,0,0,0,-0.0367,-0.042,-0.0453,-0.0528,-0.0574,-0.063,-0.0649,-0.0641,-0.0607,-0.0574,-0.0472,-0.0409,-0.0226,-0.0308,-0.0044,-0.0009,0.005,0.0219,0.0221,0.031,0.031,0.031,0.0262,0,0,0,0,0]}]]